DW6561 Weather Reports


time (UTC)temp
C
wind
direction
speed
KPH
gust
KPH
rain 1hr
cm
rain 24hr
cm
rain mn
cm
humidity
%
barometer
mb
20260506154514 16 60 16.1 32.2 0.00 0.00 0.00 75 1014.0
20260506153010 16 123 12.9 27.4 0.00 0.00 0.00 69 1014.0
20260506151506 16 180 11.3 30.6 0.00 0.00 0.00 68 1014.0
20260506150002 16 161 11.3 25.7 0.00 0.00 0.00 70 1013.9
20260506144505 15 163 17.7 30.6 0.00 0.00 0.00 71 1013.9
20260506143006 15 167 9.7 24.1 0.00 0.00 0.00 71 1013.7
20260506141521 15 178 14.5 29.0 0.00 0.00 0.00 71 1013.6
20260506140007 15 205 9.7 29.0 0.00 0.00 0.00 71 1013.7
20260506134507 15 159 11.3 24.1 0.00 0.00 0.00 71 1013.5
20260506133009 15 207 11.3 19.3 0.00 0.00 0.00 70 1013.4
20260506130005 15 153 9.7 19.3 0.00 0.00 0.00 69 1012.9
20260506124522 15 159 6.4 20.9 0.00 0.00 0.00 69 1012.7
20260506123009 15 148 6.4 22.5 0.00 0.00 0.00 68 1012.7
20260506121516 15 236 8.0 16.1 0.00 0.00 0.00 69 1012.5
20260506120011 15 156 9.7 19.3 0.00 0.00 0.00 67 1012.5
20260506113008 15 202 8.0 16.1 0.00 0.00 0.00 68 1012.2
20260506111510 15 197 8.0 17.7 0.00 0.00 0.00 70 1012.2
20260506110016 15 225 8.0 16.1 0.00 0.00 0.00 69 1012.1
20260506104522 15 141 8.0 16.1 0.00 0.00 0.00 68 1012.0
20260506103022 16 167 6.4 16.1 0.00 0.00 0.00 68 1011.9
20260506101531 16 161 6.4 17.7 0.00 0.00 0.00 66 1012.0
20260506094523 17 213 3.2 17.7 0.00 0.00 0.00 64 1011.9
20260506093021 17 252 1.6 19.3 0.00 0.00 0.00 63 1011.9
20260506091524 17 184 8.0 22.5 0.00 0.00 0.00 62 1011.7
20260506090006 18 175 9.7 20.9 0.00 0.00 0.00 59 1011.5
20260506084507 18 164 11.3 22.5 0.00 0.00 0.00 56 1011.3
20260506083003 19 153 9.7 19.3 0.00 0.00 0.00 54 1011.2
20260506081509 20 212 6.4 22.5 0.00 0.00 0.00 50 1011.1
20260506073003 21 142 6.4 19.3 0.00 0.00 0.00 46 1011.1
20260506071503 20 161 6.4 19.3 0.00 0.00 0.00 47 1011.1
20260506061503 21 139 3.2 12.9 0.00 0.00 0.00 48 1011.0
20260506044510 21 101 1.6 6.4 0.00 0.00 0.00 47 1011.0
20260506043008 21 131 1.6 12.9 0.00 0.00 0.00 45 1010.9
20260506041508 21 161 3.2 11.3 0.00 0.00 0.00 45 1010.8
20260506040005 22 132 4.8 12.9 0.00 0.00 0.00 44 1010.8
20260506034510 22 138 3.2 9.7 0.00 0.00 0.00 42 1010.7
20260506033010 23 134 1.6 9.7 0.00 0.00 0.00 42 1010.6
20260506031522 24 136 3.2 9.7 0.00 0.00 0.00 41 1010.3
20260506024509 25 116 1.6 4.8 0.00 0.00 0.00 37 1010.1
20260506023007 26 167 1.6 6.4 0.00 0.00 0.00 35 1010.1
20260506021513 26 107 0.0 6.4 0.00 0.00 0.00 34 1010.1
20260506020023 27 112 1.6 6.4 0.00 0.00 0.00 34 1010.1
20260506014533 27 299 0.0 3.2 0.00 0.00 0.00 31 1010.0
20260506013017 27 303 0.0 3.2 0.00 0.00 0.00 28 1010.0
20260506011514 27 352 0.0 4.8 0.00 0.00 0.00 29 1010.1
20260506004534 28 219 0.0 3.2 0.00 0.00 0.00 30 1010.2
20260506003028 28 296 0.0 3.2 0.00 0.00 0.00 28 1010.3
20260506001513 29 294 0.0 3.2 0.00 0.00 0.00 27 1010.4
20260506000020 29 327 0.0 3.2 0.00 0.00 0.00 27 1010.5
20260505234520 30 109 0.0 4.8 0.00 0.00 0.00 28 1010.6
20260505233009 30 271 0.0 4.8 0.00 0.00 0.00 29 1010.8
20260505231508 30 304 0.0 4.8 0.00 0.00 0.00 29 1011.0
20260505224506 29 334 0.0 4.8 0.00 0.00 0.00 30 1011.2
20260505223007 29 329 0.0 3.2 0.00 0.00 0.00 31 1011.3
20260505221516 28 78 0.0 6.4 0.00 0.00 0.00 31 1011.4
20260505220027 28 186 0.0 3.2 0.00 0.00 0.00 33 1011.6
20260505214519 28 305 0.0 6.4 0.00 0.00 0.00 32 1011.6
20260505211506 27 298 1.6 4.8 0.00 0.00 0.00 34 1011.8
20260505210012 27 258 0.0 6.4 0.00 0.00 0.00 35 1011.9
20260505204520 27 296 0.0 4.8 0.00 0.00 0.00 37 1012.1
20260505203022 27 310 0.0 4.8 0.00 0.00 0.00 36 1012.1
20260505201541 27 319 0.0 6.4 0.00 0.00 0.00 37 1012.2
20260505200010 26 327 0.0 4.8 0.00 0.00 0.00 36 1012.2
20260505194516 26 276 0.0 3.2 0.00 0.00 0.00 41 1012.4
20260505193032 25 331 0.0 4.8 0.00 0.00 0.00 39 1012.4
20260505190031 25 319 0.0 4.8 0.00 0.00 0.00 41 1012.5
20260505184510 25 331 1.6 9.7 0.00 0.00 0.00 41 1012.5
20260505183031 24 295 0.0 6.4 0.00 0.00 0.00 42 1012.6
20260505181521 23 315 0.0 4.8 0.00 0.00 0.00 41 1012.6
20260505180030 23 331 1.6 8.0 0.00 0.00 0.00 42 1012.5
20260505174527 22 329 0.0 4.8 0.00 0.00 0.00 43 1012.5
20260505173003 22 322 0.0 9.7 0.00 0.00 0.00 45 1012.5
20260505171512 22 299 0.0 6.4 0.00 0.00 0.00 46 1012.4
20260505170011 21 324 0.0 3.2 0.00 0.00 0.00 46 1012.3
20260505163003 21 335 0.0 4.8 0.00 0.00 0.00 47 1012.1
20260505161503 20 336 0.0 4.8 0.00 0.00 0.00 53 1011.9